Voltar ao catálogo

STARLINK-32040

AtivoComunicaçõesVLEO
NORAD 60109·PAYLOAD·🇺🇸 United States

Lançado Jun 23, 2024 de Cape Canaveral Space Force Station

Loading…

Próximas Passagens (próximas 24 horas)

TLE

AtualizadoSource: CelesTrak SupGP

Época: Sep 14, 2026, 21:16 UTC

1 60109C 24117U   26257.88659722  .00038606  00000+0  11409-2 0  2576
2 60109  53.1569 235.8302 0001414 100.7105  76.8265 15.34364433    15

Acompanhe STARLINK-32040 em tempo real com AllMySat

Download on the App Store